Location: Boiro
(42.6475°N, 8.8834°W)
Time: 18:01:00
(UTC+01:00)

Tiros 1 despin weight - Pass Details

Date: 05 December 2021
Orbit: 592 x 641 km, 48.2° (Epoch: 20 January)

Event Time Altitude Azimuth Distance (km) Brightness Sun altitude
Rises 19:59:01 0° 294° (WNW) 2,825 ? -20.8°
Reaches altitude 10° 20:01:21 10° 288° (WNW) 1,923 ? -21.2°
Maximum altitude 20:05:34 46° 215° (SW) 802 ? -22.0°
Enters shadow 20:07:35 27° 158° (SSE) 1,161 ? -22.4°
Drops below altitude 10° 20:09:48 10° 142° (SE) 1,930 - -22.8°
Sets 20:12:09 0° 137° (SE) 2,836 - -23.2°
